| time (UTC) | temp F | wind direction | speed knots | gust knots | rain 1hr in | rain 24hr in | rain mn in | humidity % | barometer mb |
| 20260502163105 | 68 | 167 | 5.2 | 10.4 | 0.00 | 1.35 | 0.00 | 55 | 1021.8 |
| 20260502161601 | 68 | 165 | 2.6 | 6.1 | 0.00 | 1.35 | 0.00 | 59 | 1021.8 |
| 20260502160104 | 67 | 165 | 3.5 | 5.2 | 0.00 | 1.35 | 0.00 | 63 | 1021.8 |
| 20260502151613 | 64 | 165 | 3.5 | 6.1 | 0.00 | 1.48 | 0.00 | 70 | 1021.7 |
| 20260502150112 | 63 | 165 | 1.7 | 7.0 | 0.00 | 1.48 | 0.00 | 73 | 1021.8 |
| 20260502123102 | 54 | 0 | 0.9 | 4.3 | 0.00 | 1.68 | 0.00 | 91 | 1019.9 |
| 20260502121601 | 53 | 0 | 0.9 | 3.5 | 0.00 | 1.68 | 0.00 | 91 | 1019.7 |
| 20260502120114 | 53 | 0 | 0.9 | 1.7 | 0.00 | 1.68 | 0.00 | 91 | 1019.6 |
| 20260502114603 | 53 | 0 | 0.0 | 2.6 | 0.00 | 1.68 | 0.00 | 91 | 1019.4 |
| 20260502113100 | 53 | 165 | 0.9 | 1.7 | 0.00 | 1.68 | 0.00 | 90 | 1019.3 |
| 20260502111603 | 54 | 0 | 0.0 | 2.6 | 0.00 | 1.68 | 0.00 | 90 | 1019.5 |
| 20260502104600 | 54 | 0 | 0.0 | 1.7 | 0.00 | 1.68 | 0.00 | 90 | 1018.7 |
| 20260502103113 | 54 | 165 | 0.0 | 1.7 | 0.00 | 1.68 | 0.00 | 89 | 1018.5 |
| 20260502101557 | 54 | 0 | 0.0 | 0.9 | 0.00 | 1.68 | 0.00 | 89 | 1018.4 |
| 20260502100124 | 55 | 165 | 0.0 | 1.7 | 0.00 | 1.68 | 0.00 | 89 | 1018.1 |
| 20260502090112 | 56 | 165 | 0.9 | 4.3 | 0.00 | 2.07 | 0.00 | 87 | 1017.3 |
| 20260502080105 | 55 | 165 | 0.9 | 3.5 | 0.00 | 2.08 | 0.00 | 90 | 1017.2 |
| 20260502070100 | 56 | 165 | 0.9 | 4.3 | 0.00 | 2.20 | 0.00 | 90 | 1017.2 |
| 20260502064608 | 56 | 165 | 1.7 | 5.2 | 0.00 | 2.23 | 0.00 | 89 | 1017.1 |
| 20260502063059 | 56 | 165 | 1.7 | 3.5 | 0.00 | 2.23 | 0.00 | 90 | 1017.3 |
| 20260502061557 | 56 | 165 | 0.0 | 5.2 | 0.00 | 2.23 | 0.00 | 90 | 1017.0 |
| 20260502060101 | 56 | 165 | 0.9 | 5.2 | 0.00 | 2.23 | 0.00 | 91 | 1016.9 |
| 20260502054559 | 56 | 165 | 1.7 | 5.2 | 0.00 | 2.25 | 0.00 | 91 | 1016.8 |
| 20260502053058 | 56 | 165 | 1.7 | 4.3 | 0.00 | 2.25 | 0.00 | 91 | 1016.9 |
| 20260502051659 | 56 | 165 | 2.6 | 5.2 | 0.00 | 2.25 | 0.00 | 91 | 1016.5 |
| 20260502050100 | 56 | 165 | 2.6 | 4.3 | 0.00 | 2.25 | 0.00 | 92 | 1016.6 |
| 20260502044608 | 56 | 165 | 2.6 | 5.2 | 0.00 | 2.40 | 2.25 | 92 | 1016.3 |
| 20260502043110 | 56 | 165 | 1.7 | 4.3 | 0.00 | 2.40 | 2.25 | 92 | 1016.4 |
| 20260502041559 | 56 | 165 | 0.9 | 4.3 | 0.00 | 2.40 | 2.25 | 93 | 1016.8 |
| 20260502040057 | 56 | 165 | 1.7 | 7.0 | 0.00 | 2.40 | 2.25 | 92 | 1016.4 |
| 20260502034600 | 56 | 165 | 2.6 | 7.8 | 0.00 | 2.40 | 2.25 | 93 | 1016.5 |
| 20260502033101 | 57 | 165 | 1.7 | 4.3 | 0.01 | 2.40 | 2.25 | 93 | 1016.5 |
| 20260502031611 | 57 | 165 | 1.7 | 5.2 | 0.01 | 2.40 | 2.25 | 94 | 1016.1 |
| 20260502030057 | 57 | 165 | 0.9 | 4.3 | 0.01 | 2.40 | 2.25 | 94 | 1015.7 |
| 20260502024600 | 57 | 165 | 2.6 | 6.1 | 0.02 | 2.40 | 2.25 | 93 | 1015.2 |
| 20260502023057 | 57 | 165 | 1.7 | 5.2 | 0.02 | 2.39 | 2.24 | 93 | 1015.1 |
| 20260502021559 | 58 | 165 | 0.9 | 5.2 | 0.03 | 2.39 | 2.24 | 94 | 1014.7 |
| 20260502020109 | 58 | 165 | 2.6 | 6.1 | 0.04 | 2.39 | 2.24 | 94 | 1014.5 |
| 20260502014559 | 59 | 165 | 0.9 | 2.6 | 0.07 | 2.38 | 2.23 | 95 | 1014.3 |
| 20260502013102 | 59 | 0 | 0.9 | 2.6 | 0.08 | 2.36 | 2.22 | 94 | 1014.4 |
| 20260502011559 | 59 | 0 | 1.7 | 5.2 | 0.08 | 2.35 | 2.21 | 95 | 1014.3 |
| 20260502010058 | 59 | 165 | 2.6 | 5.2 | 0.08 | 2.34 | 2.20 | 94 | 1013.7 |
| 20260502004557 | 59 | 165 | 1.7 | 6.1 | 0.11 | 2.31 | 2.16 | 94 | 1013.8 |
| 20260502003057 | 59 | 0 | 0.9 | 5.2 | 0.23 | 2.29 | 2.14 | 94 | 1013.3 |
| 20260502001600 | 59 | 165 | 1.7 | 4.3 | 0.23 | 2.28 | 2.13 | 94 | 1013.0 |
| 20260501234600 | 60 | 165 | 0.9 | 4.3 | 0.20 | 2.20 | 2.05 | 94 | 1012.7 |
| 20260501233100 | 60 | 165 | 1.7 | 7.0 | 0.06 | 2.06 | 1.91 | 94 | 1013.1 |
| 20260501231603 | 60 | 165 | 3.5 | 7.0 | 0.05 | 2.05 | 1.90 | 93 | 1011.0 |
| 20260501230114 | 61 | 165 | 2.6 | 6.1 | 0.04 | 2.04 | 1.89 | 93 | 1011.6 |
| 20260501224559 | 61 | 165 | 2.6 | 7.8 | 0.00 | 2.00 | 1.85 | 92 | 1011.8 |
| 20260501223057 | 61 | 166 | 2.6 | 7.8 | 0.01 | 2.00 | 1.85 | 94 | 1011.2 |
| 20260501221558 | 61 | 166 | 2.6 | 8.7 | 0.04 | 2.00 | 1.85 | 94 | 1010.9 |
| 20260501220057 | 62 | 165 | 1.7 | 7.0 | 0.13 | 2.00 | 1.85 | 94 | 1011.1 |
| 20260501214612 | 62 | 165 | 1.7 | 6.1 | 0.16 | 2.00 | 1.85 | 95 | 1011.5 |
| 20260501213103 | 62 | 165 | 1.7 | 6.1 | 0.18 | 1.99 | 1.84 | 95 | 1011.6 |
| 20260501211600 | 62 | 166 | 1.7 | 4.3 | 0.19 | 1.96 | 1.81 | 95 | 1011.7 |
| 20260501210057 | 62 | 166 | 0.9 | 5.2 | 0.18 | 1.87 | 1.72 | 95 | 1011.8 |
| 20260501204557 | 62 | 166 | 2.6 | 7.0 | 0.16 | 1.83 | 1.68 | 95 | 1009.8 |
| 20260501203101 | 62 | 166 | 1.7 | 6.1 | 0.14 | 1.80 | 1.65 | 95 | 1010.4 |
| 20260501201603 | 62 | 165 | 1.7 | 4.3 | 0.11 | 1.77 | 1.62 | 95 | 1010.7 |
| 20260501200059 | 63 | 165 | 0.9 | 3.5 | 0.06 | 1.69 | 1.54 | 95 | 1010.4 |
| 20260501194603 | 62 | 165 | 1.7 | 4.3 | 0.09 | 1.67 | 1.52 | 95 | 1009.7 |
| 20260501193057 | 63 | 165 | 0.0 | 5.2 | 0.09 | 1.66 | 1.51 | 95 | 1010.2 |
| 20260501191607 | 63 | 165 | 0.9 | 2.6 | 0.16 | 1.66 | 1.51 | 95 | 1010.1 |
| 20260501190124 | 63 | 165 | 1.7 | 6.1 | 0.24 | 1.63 | 1.48 | 95 | 1010.8 |
| 20260501184557 | 62 | 165 | 2.6 | 4.3 | 0.21 | 1.58 | 1.43 | 95 | 1010.0 |
| 20260501183059 | 63 | 165 | 4.3 | 8.7 | 0.36 | 1.57 | 1.42 | 95 | 1009.5 |
| 20260501181601 | 62 | 166 | 2.6 | 4.3 | 0.36 | 1.50 | 1.35 | 95 | 1010.1 |
| 20260501180100 | 63 | 166 | 3.5 | 7.0 | 0.27 | 1.39 | 1.24 | 95 | 1009.6 |
| 20260501174611 | 63 | 165 | 3.5 | 7.0 | 0.26 | 1.37 | 1.22 | 95 | 1010.3 |
| 20260501173108 | 63 | 0 | 0.9 | 4.3 | 0.11 | 1.21 | 1.05 | 95 | 1011.5 |